Saint Bonnet de Bellac- Haute Vienne - France
Donnes mto: dimanche, 16/09/2012
Date Horaire Temp. E. Hum. E. P.atmo. Pluie Vent Direction Direction Ensoleilleme Solaire P. de rose Temp au vent Rafales
16/09/2012 00:00 11,6 C 80 % 1016,5 hPa 0,0 mm 0,0 km/h (0 Bft) E 90 0 min 0 W/m 8,3 C 11,6 C 0,0 km/h (0 Bft)
16/09/2012 00:10 11,3 C 80 % 1016,6 hPa 0,0 mm 0,0 km/h (0 Bft) E-NE 67 0 min 0 W/m 8,0 C 11,3 C 0,0 km/h (0 Bft)
16/09/2012 00:20 11,1 C 80 % 1016,6 hPa 0,0 mm 0,0 km/h (0 Bft) E-NE 67 0 min 0 W/m 7,8 C 11,1 C 0,0 km/h (0 Bft)
16/09/2012 00:30 10,9 C 81 % 1016,5 hPa 0,0 mm 0,0 km/h (0 Bft) N 360 0 min 0 W/m 7,8 C 10,9 C 0,0 km/h (0 Bft)
16/09/2012 00:40 10,9 C 82 % 1016,5 hPa 0,0 mm 0,7 km/h (0 Bft) E-SE 112 0 min 0 W/m 7,9 C 10,9 C 3,2 km/h (1 Bft)
16/09/2012 00:50 10,8 C 83 % 1016,4 hPa 0,0 mm 0,0 km/h (0 Bft) E 90 0 min 0 W/m 8,0 C 10,8 C 0,0 km/h (0 Bft)
16/09/2012 01:00 10,6 C 83 % 1016,4 hPa 0,0 mm 0,0 km/h (0 Bft) S-SE 157 0 min 0 W/m 7,8 C 10,6 C 0,0 km/h (0 Bft)
16/09/2012 01:10 10,3 C 83 % 1016,4 hPa 0,0 mm 0,0 km/h (0 Bft) SE 135 0 min 0 W/m 7,5 C 10,3 C 0,0 km/h (0 Bft)
16/09/2012 01:20 10,3 C 83 % 1016,4 hPa 0,0 mm 0,0 km/h (0 Bft) E-SE 112 0 min 0 W/m 7,5 C 10,3 C 0,0 km/h (0 Bft)
16/09/2012 01:30 10,3 C 84 % 1016,4 hPa 0,0 mm 0,4 km/h (0 Bft) E-SE 112 0 min 0 W/m 7,7 C 10,3 C 4,0 km/h (1 Bft)
16/09/2012 01:40 10,2 C 84 % 1016,2 hPa 0,0 mm 0,7 km/h (0 Bft) E-NE 67 0 min 0 W/m 7,6 C 10,2 C 0,7 km/h (0 Bft)
16/09/2012 01:50 10,1 C 84 % 1016,2 hPa 0,0 mm 0,0 km/h (0 Bft) E-SE 112 0 min 0 W/m 7,5 C 10,1 C 0,0 km/h (0 Bft)
16/09/2012 02:00 9,9 C 84 % 1016,1 hPa 0,0 mm 0,0 km/h (0 Bft) E 90 0 min 0 W/m 7,3 C 9,9 C 0,0 km/h (0 Bft)
16/09/2012 02:10 9,8 C 84 % 1016,1 hPa 0,0 mm 0,0 km/h (0 Bft) E-SE 112 0 min 0 W/m 7,2 C 9,8 C 0,0 km/h (0 Bft)
16/09/2012 02:20 9,6 C 85 % 1016,0 hPa 0,0 mm 0,4 km/h (0 Bft) E 90 0 min 0 W/m 7,2 C 9,6 C 0,4 km/h (0 Bft)
16/09/2012 02:30 9,6 C 85 % 1016,1 hPa 0,0 mm 0,0 km/h (0 Bft) E-SE 112 0 min 0 W/m 7,2 C 9,6 C 0,0 km/h (0 Bft)
16/09/2012 02:40 9,4 C 85 % 1016,1 hPa 0,0 mm 0,0 km/h (0 Bft) E 90 0 min 0 W/m 7,0 C 9,4 C 3,2 km/h (1 Bft)
16/09/2012 02:50 9,3 C 85 % 1016,0 hPa 0,0 mm 0,0 km/h (0 Bft) E 90 0 min 0 W/m 6,9 C 9,3 C 0,0 km/h (0 Bft)
16/09/2012 03:02 9,3 C 86 % 1016,0 hPa 0,0 mm 0,0 km/h (0 Bft) E-SE 112 0 min 0 W/m 7,1 C 9,3 C 0,0 km/h (0 Bft)
16/09/2012 03:10 9,3 C 86 % 1015,9 hPa 0,0 mm 0,0 km/h (0 Bft) E 90 0 min 0 W/m 7,1 C 9,3 C 3,2 km/h (1 Bft)
16/09/2012 03:20 9,4 C 86 % 1015,8 hPa 0,0 mm 0,7 km/h (0 Bft) E 90 0 min 0 W/m 7,2 C 9,4 C 3,6 km/h (1 Bft)
16/09/2012 03:30 9,3 C 87 % 1015,8 hPa 0,0 mm 0,4 km/h (0 Bft) E-SE 112 0 min 0 W/m 7,2 C 9,3 C 3,2 km/h (1 Bft)
16/09/2012 03:40 9,3 C 87 % 1015,7 hPa 0,0 mm 0,4 km/h (0 Bft) SE 135 0 min 0 W/m 7,2 C 9,3 C 3,6 km/h (1 Bft)
16/09/2012 03:50 9,3 C 87 % 1015,7 hPa 0,0 mm 0,4 km/h (0 Bft) E-NE 67 0 min 0 W/m 7,2 C 9,3 C 4,0 km/h (1 Bft)
16/09/2012 04:00 9,1 C 87 % 1015,7 hPa 0,0 mm 0,0 km/h (0 Bft) SE 135 0 min 0 W/m 7,1 C 9,1 C 0,0 km/h (0 Bft)
16/09/2012 04:10 9,0 C 87 % 1015,6 hPa 0,0 mm 0,0 km/h (0 Bft) E-SE 112 0 min 0 W/m 7,0 C 9,0 C 0,0 km/h (0 Bft)
16/09/2012 04:20 8,8 C 87 % 1015,5 hPa 0,0 mm 0,0 km/h (0 Bft) E-SE 112 0 min 0 W/m 6,8 C 8,8 C 0,0 km/h (0 Bft)
16/09/2012 04:30 8,7 C 87 % 1015,4 hPa 0,0 mm 0,4 km/h (0 Bft) E-SE 112 0 min 0 W/m 6,7 C 8,7 C 2,9 km/h (1 Bft)
16/09/2012 04:40 8,6 C 87 % 1015,3 hPa 0,0 mm 0,0 km/h (0 Bft) E-SE 112 0 min 0 W/m 6,6 C 8,6 C 0,0 km/h (0 Bft)
16/09/2012 04:50 8,4 C 87 % 1015,3 hPa 0,0 mm 0,4 km/h (0 Bft) E 90 0 min 0 W/m 6,4 C 8,4 C 3,6 km/h (1 Bft)
16/09/2012 05:00 8,4 C 88 % 1015,3 hPa 0,0 mm 0,0 km/h (0 Bft) E-SE 112 0 min 0 W/m 6,5 C 8,4 C 0,0 km/h (0 Bft)
16/09/2012 05:10 8,3 C 88 % 1015,3 hPa 0,0 mm 0,0 km/h (0 Bft) E-SE 112 0 min 0 W/m 6,4 C 8,3 C 0,0 km/h (0 Bft)
16/09/2012 05:20 8,2 C 88 % 1015,3 hPa 0,0 mm 0,0 km/h (0 Bft) E-SE 112 0 min 0 W/m 6,3 C 8,2 C 0,0 km/h (0 Bft)
16/09/2012 05:30 8,1 C 88 % 1015,3 hPa 0,0 mm 0,0 km/h (0 Bft) SE 135 0 min 0 W/m 6,2 C 8,1 C 0,0 km/h (0 Bft)
16/09/2012 05:40 7,9 C 89 % 1015,1 hPa 0,0 mm 0,0 km/h (0 Bft) SE 135 0 min 0 W/m 6,2 C 7,9 C 0,0 km/h (0 Bft)
16/09/2012 05:50 7,8 C 89 % 1015,0 hPa 0,0 mm 0,0 km/h (0 Bft) E 90 0 min 0 W/m 6,1 C 7,8 C 0,0 km/h (0 Bft)
16/09/2012 06:00 7,8 C 89 % 1015,0 hPa 0,0 mm 0,0 km/h (0 Bft) SE 135 0 min 0 W/m 6,1 C 7,8 C 0,0 km/h (0 Bft)
16/09/2012 06:10 7,6 C 89 % 1015,0 hPa 0,0 mm 0,0 km/h (0 Bft) E-SE 112 0 min 0 W/m 5,9 C 7,6 C 0,0 km/h (0 Bft)
16/09/2012 06:20 7,6 C 89 % 1015,0 hPa 0,0 mm 0,0 km/h (0 Bft) E-SE 112 0 min 0 W/m 5,9 C 7,6 C 0,0 km/h (0 Bft)
16/09/2012 06:30 7,6 C 89 % 1015,0 hPa 0,0 mm 0,0 km/h (0 Bft) E-SE 112 0 min 0 W/m 5,9 C 7,6 C 4,0 km/h (1 Bft)
16/09/2012 06:40 7,6 C 89 % 1015,1 hPa 0,0 mm 1,8 km/h (1 Bft) E 90 0 min 0 W/m 5,9 C 7,6 C 4,3 km/h (1 Bft)
16/09/2012 06:50 7,6 C 89 % 1015,0 hPa 0,0 mm 0,7 km/h (0 Bft) E-SE 112 0 min 0 W/m 5,9 C 7,6 C 3,6 km/h (1 Bft)
16/09/2012 07:00 7,7 C 89 % 1015,0 hPa 0,0 mm 2,5 km/h (1 Bft) E 90 0 min 0 W/m 6,0 C 7,7 C 3,6 km/h (1 Bft)
16/09/2012 07:10 7,7 C 89 % 1014,9 hPa 0,0 mm 2,2 km/h (1 Bft) E 90 0 min 0 W/m 6,0 C 7,7 C 4,3 km/h (1 Bft)
16/09/2012 07:20 7,7 C 89 % 1014,9 hPa 0,0 mm 2,2 km/h (1 Bft) S-SE 157 0 min 0 W/m 6,0 C 7,7 C 4,0 km/h (1 Bft)
16/09/2012 07:30 7,7 C 90 % 1014,9 hPa 0,0 mm 2,2 km/h (1 Bft) E-NE 67 0 min 0 W/m 6,2 C 7,7 C 4,3 km/h (1 Bft)
16/09/2012 07:40 7,6 C 90 % 1014,9 hPa 0,0 mm 4,0 km/h (1 Bft) E 90 0 min 0 W/m 6,1 C 7,6 C 6,8 km/h (2 Bft)
16/09/2012 07:50 7,5 C 90 % 1015,0 hPa 0,0 mm 3,2 km/h (1 Bft) E-SE 112 0 min 0 W/m 6,0 C 7,5 C 3,2 km/h (1 Bft)
16/09/2012 08:00 7,4 C 89 % 1015,0 hPa 0,0 mm 1,1 km/h (1 Bft) E-SE 112 0 min 0 W/m 5,7 C 7,4 C 3,2 km/h (1 Bft)
16/09/2012 08:10 7,4 C 89 % 1014,9 hPa 0,0 mm 1,1 km/h (1 Bft) E 90 0 min 0 W/m 5,7 C 7,4 C 4,0 km/h (1 Bft)
16/09/2012 08:20 7,4 C 89 % 1014,9 hPa 0,0 mm 0,0 km/h (0 Bft) E-SE 112 0 min 0 W/m 5,7 C 7,4 C 2,9 km/h (1 Bft)
16/09/2012 08:30 7,4 C 89 % 1014,9 hPa 0,0 mm 0,0 km/h (0 Bft) E-SE 112 0 min 0 W/m 5,7 C 7,4 C 0,0 km/h (0 Bft)
16/09/2012 08:40 7,7 C 90 % 1014,8 hPa 0,0 mm 1,4 km/h (1 Bft) E-SE 112 0 min 0 W/m 6,2 C 7,7 C 4,0 km/h (1 Bft)
16/09/2012 08:50 8,4 C 91 % 1014,9 hPa 0,0 mm 1,1 km/h (1 Bft) SE 135 0 min 0 W/m 7,0 C 8,4 C 4,0 km/h (1 Bft)
16/09/2012 09:00 9,3 C 90 % 1014,8 hPa 0,0 mm 0,0 km/h (0 Bft) E-SE 112 0 min 0 W/m 7,7 C 9,3 C 0,0 km/h (0 Bft)
16/09/2012 09:10 10,3 C 89 % 1014,8 hPa 0,0 mm 0,0 km/h (0 Bft) E-SE 112 0 min 0 W/m 8,6 C 10,3 C 0,0 km/h (0 Bft)
16/09/2012 09:20 11,3 C 87 % 1014,8 hPa 0,0 mm 0,0 km/h (0 Bft) SE 135 0 min 0 W/m 9,2 C 11,3 C 0,0 km/h (0 Bft)
16/09/2012 09:30 12,3 C 85 % 1014,9 hPa 0,0 mm 0,0 km/h (0 Bft) E 90 0 min 0 W/m 9,9 C 12,3 C 0,0 km/h (0 Bft)
16/09/2012 09:40 13,2 C 82 % 1015,3 hPa 0,0 mm 0,0 km/h (0 Bft) NE 45 0 min 0 W/m 10,2 C 13,2 C 0,0 km/h (0 Bft)
16/09/2012 09:50 14,1 C 80 % 1015,4 hPa 0,0 mm 0,0 km/h (0 Bft) E-NE 67 0 min 0 W/m 10,7 C 14,1 C 2,9 km/h (1 Bft)
16/09/2012 10:00 14,9 C 77 % 1015,3 hPa 0,0 mm 0,0 km/h (0 Bft) E 90 0 min 0 W/m 10,9 C 14,9 C 0,0 km/h (0 Bft)
16/09/2012 10:10 15,6 C 74 % 1015,4 hPa 0,0 mm 0,0 km/h (0 Bft) E-SE 112 0 min 0 W/m 11,0 C 15,6 C 1,4 km/h (1 Bft)
16/09/2012 10:20 16,5 C 73 % 1015,3 hPa 0,0 mm 2,2 km/h (1 Bft) E-SE 112 0 min 0 W/m 11,6 C 16,5 C 4,3 km/h (1 Bft)
16/09/2012 10:30 17,3 C 70 % 1015,3 hPa 0,0 mm 0,4 km/h (0 Bft) E-NE 67 0 min 0 W/m 11,8 C 17,3 C 3,2 km/h (1 Bft)
16/09/2012 10:40 17,8 C 68 % 1015,2 hPa 0,0 mm 2,9 km/h (1 Bft) E-NE 67 0 min 0 W/m 11,8 C 17,8 C 6,5 km/h (2 Bft)
16/09/2012 10:50 18,1 C 66 % 1015,1 hPa 0,0 mm 2,9 km/h (1 Bft) E-SE 112 0 min 0 W/m 11,6 C 18,1 C 4,0 km/h (1 Bft)
16/09/2012 11:00 18,8 C 63 % 1015,2 hPa 0,0 mm 0,4 km/h (0 Bft) SE 135 0 min 0 W/m 11,6 C 18,8 C 4,0 km/h (1 Bft)
16/09/2012 11:10 19,6 C 62 % 1015,1 hPa 0,0 mm 2,9 km/h (1 Bft) SE 135 0 min 0 W/m 12,1 C 19,6 C 6,8 km/h (2 Bft)
16/09/2012 11:20 20,3 C 59 % 1015,2 hPa 0,0 mm 4,0 km/h (1 Bft) NE 45 0 min 0 W/m 12,0 C 20,3 C 6,8 km/h (2 Bft)
16/09/2012 11:30 20,9 C 56 % 1015,1 hPa 0,0 mm 0,4 km/h (0 Bft) NE 45 0 min 0 W/m 11,8 C 20,9 C 4,3 km/h (1 Bft)
16/09/2012 11:40 21,6 C 55 % 1015,0 hPa 0,0 mm 2,5 km/h (1 Bft) N-NE 22 0 min 0 W/m 12,2 C 21,6 C 4,3 km/h (1 Bft)
16/09/2012 11:50 21,8 C 54 % 1015,1 hPa 0,0 mm 2,2 km/h (1 Bft) NE 45 0 min 0 W/m 12,1 C 21,8 C 4,0 km/h (1 Bft)
16/09/2012 12:00 22,3 C 52 % 1014,9 hPa 0,0 mm 0,7 km/h (0 Bft) E 90 0 min 0 W/m 12,0 C 22,3 C 3,6 km/h (1 Bft)
16/09/2012 12:10 22,7 C 51 % 1014,9 hPa 0,0 mm 1,4 km/h (1 Bft) NE 45 0 min 0 W/m 12,0 C 22,7 C 4,0 km/h (1 Bft)
16/09/2012 12:20 22,8 C 50 % 1014,9 hPa 0,0 mm 4,3 km/h (1 Bft) E-NE 67 0 min 0 W/m 11,8 C 22,8 C 6,5 km/h (2 Bft)
16/09/2012 12:30 23,1 C 49 % 1014,9 hPa 0,0 mm 0,0 km/h (0 Bft) E-SE 112 0 min 0 W/m 11,8 C 23,1 C 0,0 km/h (0 Bft)
16/09/2012 12:40 23,6 C 49 % 1014,8 hPa 0,0 mm 0,7 km/h (0 Bft) N 360 0 min 0 W/m 12,2 C 23,6 C 0,7 km/h (0 Bft)
16/09/2012 12:50 23,9 C 47 % 1014,8 hPa 0,0 mm 0,7 km/h (0 Bft) SE 135 0 min 0 W/m 11,9 C 23,9 C 4,3 km/h (1 Bft)
16/09/2012 13:00 23,6 C 47 % 1014,9 hPa 0,0 mm 0,4 km/h (0 Bft) S 180 0 min 0 W/m 11,6 C 23,6 C 0,4 km/h (0 Bft)
16/09/2012 13:10 24,2 C 46 % 1014,9 hPa 0,0 mm 0,0 km/h (0 Bft) NE 45 0 min 0 W/m 11,8 C 24,2 C 0,0 km/h (0 Bft)
16/09/2012 13:20 24,7 C 46 % 1014,8 hPa 0,0 mm 0,0 km/h (0 Bft) NE 45 0 min 0 W/m 12,3 C 24,7 C 0,0 km/h (0 Bft)
16/09/2012 13:30 24,7 C 43 % 1014,9 hPa 0,0 mm 0,0 km/h (0 Bft) SO 225 0 min 0 W/m 11,3 C 24,7 C 0,0 km/h (0 Bft)
16/09/2012 13:40 24,8 C 42 % 1014,8 hPa 0,0 mm 3,6 km/h (1 Bft) SO 225 0 min 0 W/m 11,0 C 24,8 C 4,3 km/h (1 Bft)
16/09/2012 13:50 24,9 C 44 % 1014,8 hPa 0,0 mm 1,4 km/h (1 Bft) N-NO 337 0 min 0 W/m 11,8 C 24,9 C 4,3 km/h (1 Bft)
16/09/2012 14:00 25,2 C 43 % 1014,6 hPa 0,0 mm 4,0 km/h (1 Bft) N 360 0 min 0 W/m 11,7 C 25,2 C 7,2 km/h (2 Bft)
16/09/2012 14:10 25,7 C 42 % 1014,6 hPa 0,0 mm 0,0 km/h (0 Bft) O-SO 247 0 min 0 W/m 11,8 C 25,7 C 3,6 km/h (1 Bft)
16/09/2012 14:20 25,7 C 41 % 1014,4 hPa 0,0 mm 1,8 km/h (1 Bft) O 270 0 min 0 W/m 11,4 C 25,7 C 1,8 km/h (1 Bft)
16/09/2012 14:30 25,8 C 42 % 1014,2 hPa 0,0 mm 0,0 km/h (0 Bft) NE 45 0 min 0 W/m 11,9 C 25,8 C 0,0 km/h (0 Bft)
16/09/2012 14:40 26,0 C 41 % 1014,1 hPa 0,0 mm 3,2 km/h (1 Bft) N-NE 22 0 min 0 W/m 11,7 C 26,0 C 4,3 km/h (1 Bft)
16/09/2012 14:50 26,3 C 41 % 1014,0 hPa 0,0 mm 2,5 km/h (1 Bft) E-NE 67 0 min 0 W/m 12,0 C 26,3 C 2,9 km/h (1 Bft)
16/09/2012 15:00 26,3 C 40 % 1013,9 hPa 0,0 mm 3,6 km/h (1 Bft) N-NO 337 0 min 0 W/m 11,6 C 26,3 C 6,1 km/h (2 Bft)
16/09/2012 15:10 26,1 C 39 % 1013,8 hPa 0,0 mm 2,5 km/h (1 Bft) O 270 0 min 0 W/m 11,0 C 26,1 C 2,5 km/h (1 Bft)
16/09/2012 15:20 26,1 C 40 % 1013,8 hPa 0,0 mm 0,4 km/h (0 Bft) O 270 0 min 0 W/m 11,4 C 26,1 C 3,2 km/h (1 Bft)
16/09/2012 15:30 26,1 C 40 % 1013,7 hPa 0,0 mm 0,4 km/h (0 Bft) N 360 0 min 0 W/m 11,4 C 26,1 C 4,0 km/h (1 Bft)
16/09/2012 15:40 26,1 C 39 % 1013,5 hPa 0,0 mm 0,0 km/h (0 Bft) N-NE 22 0 min 0 W/m 11,0 C 26,1 C 0,0 km/h (0 Bft)
16/09/2012 15:50 26,2 C 39 % 1013,5 hPa 0,0 mm 4,0 km/h (1 Bft) N 360 0 min 0 W/m 11,1 C 26,2 C 4,0 km/h (1 Bft)
16/09/2012 16:00 25,9 C 40 % 1013,2 hPa 0,0 mm 0,0 km/h (0 Bft) E 90 0 min 0 W/m 11,3 C 25,9 C 0,0 km/h (0 Bft)
16/09/2012 16:10 25,8 C 39 % 1013,3 hPa 0,0 mm 0,0 km/h (0 Bft) O-SO 247 0 min 0 W/m 10,8 C 25,8 C 0,0 km/h (0 Bft)
16/09/2012 16:20 25,8 C 39 % 1013,3 hPa 0,0 mm 0,0 km/h (0 Bft) S-SO 202 0 min 0 W/m 10,8 C 25,8 C 0,0 km/h (0 Bft)
16/09/2012 16:30 25,9 C 40 % 1013,1 hPa 0,0 mm 0,4 km/h (0 Bft) N-NO 337 0 min 0 W/m 11,3 C 25,9 C 3,2 km/h (1 Bft)
16/09/2012 16:40 26,1 C 40 % 1013,0 hPa 0,0 mm 1,1 km/h (1 Bft) N-NE 22 0 min 0 W/m 11,4 C 26,1 C 6,1 km/h (2 Bft)
16/09/2012 16:50 26,3 C 39 % 1012,9 hPa 0,0 mm 0,0 km/h (0 Bft) E-NE 67 0 min 0 W/m 11,2 C 26,3 C 0,0 km/h (0 Bft)
16/09/2012 17:00 26,1 C 38 % 1013,0 hPa 0,0 mm 2,5 km/h (1 Bft) S-SE 157 0 min 0 W/m 10,7 C 26,1 C 4,3 km/h (1 Bft)
16/09/2012 17:10 26,0 C 39 % 1013,1 hPa 0,0 mm 1,4 km/h (1 Bft) E-NE 67 0 min 0 W/m 11,0 C 26,0 C 1,4 km/h (1 Bft)
16/09/2012 17:20 25,9 C 39 % 1013,0 hPa 0,0 mm 0,0 km/h (0 Bft) E-NE 67 0 min 0 W/m 10,9 C 25,9 C 0,0 km/h (0 Bft)
16/09/2012 17:30 25,5 C 39 % 1012,9 hPa 0,0 mm 0,0 km/h (0 Bft) NE 45 0 min 0 W/m 10,5 C 25,5 C 0,0 km/h (0 Bft)
16/09/2012 17:40 25,5 C 39 % 1012,9 hPa 0,0 mm 0,0 km/h (0 Bft) S 180 0 min 0 W/m 10,5 C 25,5 C 0,0 km/h (0 Bft)
16/09/2012 17:50 25,5 C 39 % 1013,1 hPa 0,0 mm 0,0 km/h (0 Bft) SO 225 0 min 0 W/m 10,5 C 25,5 C 0,0 km/h (0 Bft)
16/09/2012 18:00 25,3 C 38 % 1013,2 hPa 0,0 mm 0,4 km/h (0 Bft) O-SO 247 0 min 0 W/m 9,9 C 25,3 C 3,2 km/h (1 Bft)
16/09/2012 18:10 24,9 C 39 % 1013,2 hPa 0,0 mm 0,0 km/h (0 Bft) O-SO 247 0 min 0 W/m 10,0 C 24,9 C 0,0 km/h (0 Bft)
16/09/2012 18:20 24,8 C 39 % 1013,0 hPa 0,0 mm 0,0 km/h (0 Bft) O-SO 247 0 min 0 W/m 9,9 C 24,8 C 0,0 km/h (0 Bft)
16/09/2012 18:30 24,8 C 40 % 1013,0 hPa 0,0 mm 0,0 km/h (0 Bft) O-SO 247 0 min 0 W/m 10,3 C 24,8 C 0,0 km/h (0 Bft)
16/09/2012 18:40 24,5 C 40 % 1012,9 hPa 0,0 mm 0,0 km/h (0 Bft) O-SO 247 0 min 0 W/m 10,0 C 24,5 C 0,0 km/h (0 Bft)
16/09/2012 18:50 24,1 C 41 % 1012,9 hPa 0,0 mm 0,0 km/h (0 Bft) O-SO 247 0 min 0 W/m 10,0 C 24,1 C 0,0 km/h (0 Bft)
16/09/2012 19:00 23,8 C 42 % 1012,7 hPa 0,0 mm 0,0 km/h (0 Bft) O-SO 247 0 min 0 W/m 10,1 C 23,8 C 0,0 km/h (0 Bft)
16/09/2012 19:10 23,4 C 43 % 1012,8 hPa 0,0 mm 0,0 km/h (0 Bft) O-SO 247 0 min 0 W/m 10,1 C 23,4 C 0,0 km/h (0 Bft)
16/09/2012 19:20 23,1 C 45 % 1013,1 hPa 0,0 mm 0,0 km/h (0 Bft) O-SO 247 0 min 0 W/m 10,5 C 23,1 C 0,0 km/h (0 Bft)
16/09/2012 19:30 22,6 C 46 % 1013,0 hPa 0,0 mm 0,0 km/h (0 Bft) O-SO 247 0 min 0 W/m 10,4 C 22,6 C 0,0 km/h (0 Bft)
16/09/2012 19:40 22,3 C 47 % 1012,7 hPa 0,0 mm 0,0 km/h (0 Bft) O-SO 247 0 min 0 W/m 10,4 C 22,3 C 0,0 km/h (0 Bft)
16/09/2012 19:50 21,8 C 47 % 1012,7 hPa 0,0 mm 0,0 km/h (0 Bft) O-NO 292 0 min 0 W/m 10,0 C 21,8 C 0,0 km/h (0 Bft)
16/09/2012 20:00 21,2 C 49 % 1012,9 hPa 0,0 mm 0,0 km/h (0 Bft) O-NO 292 0 min 0 W/m 10,1 C 21,2 C 0,0 km/h (0 Bft)
16/09/2012 20:10 20,6 C 50 % 1012,9 hPa 0,0 mm 0,0 km/h (0 Bft) O-NO 292 0 min 0 W/m 9,8 C 20,6 C 0,0 km/h (0 Bft)
16/09/2012 20:20 19,9 C 51 % 1012,9 hPa 0,0 mm 0,0 km/h (0 Bft) O-NO 292 0 min 0 W/m 9,5 C 19,9 C 0,0 km/h (0 Bft)
16/09/2012 20:30 19,4 C 53 % 1013,0 hPa 0,0 mm 0,0 km/h (0 Bft) O-NO 292 0 min 0 W/m 9,6 C 19,4 C 0,0 km/h (0 Bft)
16/09/2012 20:40 18,9 C 56 % 1013,4 hPa 0,0 mm 0,0 km/h (0 Bft) O-NO 292 0 min 0 W/m 9,9 C 18,9 C 0,0 km/h (0 Bft)
16/09/2012 20:50 18,4 C 57 % 1013,4 hPa 0,0 mm 0,0 km/h (0 Bft) O-NO 292 0 min 0 W/m 9,7 C 18,4 C 0,0 km/h (0 Bft)
16/09/2012 21:00 18,1 C 57 % 1013,4 hPa 0,0 mm 0,0 km/h (0 Bft) O-NO 292 0 min 0 W/m 9,4 C 18,1 C 0,0 km/h (0 Bft)
16/09/2012 21:10 17,6 C 57 % 1013,5 hPa 0,0 mm 0,0 km/h (0 Bft) O-NO 292 0 min 0 W/m 9,0 C 17,6 C 0,0 km/h (0 Bft)
16/09/2012 21:20 17,3 C 58 % 1013,4 hPa 0,0 mm 0,0 km/h (0 Bft) NE 45 0 min 0 W/m 9,0 C 17,3 C 0,0 km/h (0 Bft)
16/09/2012 21:30 17,0 C 59 % 1013,6 hPa 0,0 mm 0,0 km/h (0 Bft) NE 45 0 min 0 W/m 8,9 C 17,0 C 0,0 km/h (0 Bft)
16/09/2012 21:40 16,6 C 60 % 1013,9 hPa 0,0 mm 0,0 km/h (0 Bft) NE 45 0 min 0 W/m 8,8 C 16,6 C 0,0 km/h (0 Bft)
16/09/2012 21:50 16,3 C 61 % 1013,8 hPa 0,0 mm 0,0 km/h (0 Bft) NE 45 0 min 0 W/m 8,8 C 16,3 C 0,0 km/h (0 Bft)
16/09/2012 22:00 16,1 C 63 % 1013,8 hPa 0,0 mm 0,0 km/h (0 Bft) NE 45 0 min 0 W/m 9,1 C 16,1 C 0,0 km/h (0 Bft)
16/09/2012 22:10 15,8 C 63 % 1013,8 hPa 0,0 mm 0,0 km/h (0 Bft) NE 45 0 min 0 W/m 8,8 C 15,8 C 0,0 km/h (0 Bft)
16/09/2012 22:20 15,7 C 64 % 1013,8 hPa 0,0 mm 0,0 km/h (0 Bft) NE 45 0 min 0 W/m 8,9 C 15,7 C 0,0 km/h (0 Bft)
16/09/2012 22:30 15,5 C 64 % 1014,1 hPa 0,0 mm 0,0 km/h (0 Bft) NE 45 0 min 0 W/m 8,7 C 15,5 C 0,0 km/h (0 Bft)
16/09/2012 22:40 15,3 C 65 % 1014,0 hPa 0,0 mm 0,0 km/h (0 Bft) NE 45 0 min 0 W/m 8,8 C 15,3 C 0,0 km/h (0 Bft)
16/09/2012 22:50 15,1 C 66 % 1014,0 hPa 0,0 mm 0,0 km/h (0 Bft) NE 45 0 min 0 W/m 8,8 C 15,1 C 0,0 km/h (0 Bft)
16/09/2012 23:00 14,9 C 67 % 1013,9 hPa 0,0 mm 0,0 km/h (0 Bft) E-NE 67 0 min 0 W/m 8,8 C 14,9 C 0,0 km/h (0 Bft)
16/09/2012 23:10 14,7 C 68 % 1013,9 hPa 0,0 mm 0,0 km/h (0 Bft) E-NE 67 0 min 0 W/m 8,9 C 14,7 C 0,0 km/h (0 Bft)
16/09/2012 23:20 14,5 C 69 % 1013,8 hPa 0,0 mm 0,0 km/h (0 Bft) E-NE 67 0 min 0 W/m 8,9 C 14,5 C 0,0 km/h (0 Bft)
16/09/2012 23:30 14,4 C 70 % 1013,9 hPa 0,0 mm 0,0 km/h (0 Bft) S-SO 202 0 min 0 W/m 9,0 C 14,4 C 0,0 km/h (0 Bft)
16/09/2012 23:40 14,2 C 70 % 1013,9 hPa 0,0 mm 0,0 km/h (0 Bft) E 90 0 min 0 W/m 8,8 C 14,2 C 0,0 km/h (0 Bft)
16/09/2012 23:50 14,0 C 70 % 1013,9 hPa 0,0 mm 2,9 km/h (1 Bft) E-NE 67 0 min 0 W/m 8,6 C 14,0 C 4,0 km/h (1 Bft)
_ Min-Heure 08:30 18:00 19:50 - 23:40 - - - - 08:30 08:30 23:40
Minimum _ 7,4 C 38 % 1012,7 hPa - 0,0 km/h (0 Bft) - - - - 5,7 C 7,4 C 0,0 km/h (0 Bft)
_ Max-Heure 16:50 08:50 00:20 23:50 12:20 - - 23:50 23:50 13:20 16:50 14:00
Maximum _ 26,3 C 91 % 1016,6 hPa 0,0 mm 4,3 km/h
E-NE (1 Bft)
- - 0 min 0 W/m 12,3 C 26,3 C 7,2 km/h
N (2 Bft)
Moyenne _ 16,5 C 66 % 1014,6 hPa #0,0 mm 0,7 km/h (0 Bft) E-SE - #0 min. 0 W/m 9,1 C 16,5 C 1,6 km/h (1 Bft)
Saint Bonnet de Bellac- Haute Vienne - France